This demonstration page uses our WeatherBlox Daily Observations layout. Learn more.

39.29038, -76.61219

Hourly Observations for April 1, 2016

Temp ( °F °C ) Dew Point ( °F °C ) Humidity (%) Winds ( mph kmh ) Pressure ( in mb ) Visibility ( mi km ) Precip ( " mm )
12:54 am 00:54 undefined 63 17.2 54 12.2 73 73 undefined N/A 29.75 1008 N/A 0 0
1:54 am 01:54 undefined 61 16.1 55 12.8 81 81 undefined N/A 29.75 1008 N/A 0 0
2:54 am 02:54 undefined 62 16.7 56 13.3 80 80 undefined N/A 29.73 1007 N/A 0 0
3:54 am 03:54 undefined 63 17.2 58 14.4 84 84 undefined N/A 29.69 1005 N/A 0 0
4:54 am 04:54 undefined 64 17.8 60 15.6 87 87 undefined N/A 29.67 1005 N/A 0 0
5:54 am 05:54 undefined 63 17.2 59 15 87 87 undefined N/A 29.67 1005 N/A 0 0
6:54 am 06:54 undefined 63 17.2 59 15 87 87 undefined N/A 29.67 1005 N/A 0 0
7:54 am 07:54 undefined 69 20.6 62 16.7 78 78 undefined N/A 29.65 1004 N/A 0 0
8:54 am 08:54 undefined 69 20.6 61 16.1 76 76 undefined N/A 29.65 1004 N/A 0 0
9:54 am 09:54 undefined 67 19.4 62 16.7 84 84 undefined N/A 29.63 1003 N/A 0 0
10:54 am 10:54 undefined 69 20.6 62 16.7 78 78 undefined N/A 29.65 1004 N/A 0 0
11:54 am 11:54 undefined 72 22.2 61 16.1 68 68 undefined N/A 29.63 1003 N/A 0 0
12:54 pm 12:54 undefined 76 24.4 59 15 56 56 undefined N/A 29.59 1002 N/A 0 0
1:54 pm 13:54 undefined 78 25.6 58 14.4 50 50 undefined N/A 29.57 1001 N/A 0 0
2:54 pm 14:54 undefined 81 27.2 58 14.4 45 45 undefined N/A 29.52 1000 N/A 0 0
3:54 pm 15:54 undefined 82 27.8 58 14.4 44 44 undefined N/A 29.5 999 N/A 0 0
4:54 pm 16:54 undefined 83 28.3 53 11.7 36 36 undefined N/A 29.5 999 N/A 0 0
5:54 pm 17:54 undefined 82 27.8 51 10.6 34 34 undefined N/A 29.52 1000 N/A 0 0
6:54 pm 18:54 undefined 74 23.3 56 13.3 54 54 undefined N/A 29.55 1001 N/A 0 0
7:54 pm 19:54 undefined 72 22.2 47 8.3 41 41 undefined N/A 29.79 1009 N/A 0 0
8:54 pm 20:54 undefined 68 20 59 15 73 73 undefined N/A 29.6 1002 N/A 0.06 1.524
9:54 pm 21:54 undefined 69 20.6 60 15.6 73 73 undefined N/A 29.65 1004 N/A 0 0
10:54 pm 22:54 undefined 70 21.1 47 8.3 44 44 undefined N/A 29.65 1004 N/A 0 0
11:54 pm 23:54 undefined 69 20.6 43 6.1 39 39 undefined N/A 29.65 1004 N/A 0 0

Powered by AerisWeather